Regional Weather Roundup
Issued by NWS

Home | Current Version | Previous Version | Graphics & Text | Print | Product List | Glossary On
Versions: 1 2 3 4 5 6 7 8 9 10 11 12 13 14 15 16 17 18 19 20 21 22 23 24 25 26 27 28 29 30 31 32 33 34 35 36 37 38 39 40 41 42 43 44 45 46 47 48 49 50
000
ASUS43 KOAX 200802
RWRNE

WEATHER ROUNDUP FOR NEBRASKA
NATIONAL WEATHER SERVICE OMAHA NE
300 AM CDT FRI OCT 20 2017

NOTES: SATELLITE DATA IS BEING USED TO AUGMENT CLOUD COVER ABOVE
       12000 FEET.
       "FAIR" INDICATES FEW OR NO CLOUDS BELOW 12,000 FEET WITH NO
       SIGNIFICANT WEATHER AND/OR OBSTRUCTIONS TO VISIBILITY.


NEZ001>004-019>022-054>056-200900-
NEBRASKA PANHANDLE

CITY           SKY/WX    TMP DP  RH WIND       PRES   REMARKS
SCOTTSBLUFF    CLEAR     48  32  53 E8        29.77F
ALLIANCE       CLEAR     47  40  76 S12       29.78F
CHADRON        CLEAR     54  35  48 CALM      29.71S
GORDON         FAIR      57  44  62 CALM      29.75F
KIMBALL        PTCLDY    43  35  72 W7        29.82F
SIDNEY         PTCLDY    44  39  82 S9        29.80F
$$

NEZ057>060-069>072-079>082-200900-
SOUTHWEST NEBRASKA

CITY           SKY/WX    TMP DP  RH WIND       PRES   REMARKS
NORTH PLATTE   PTCLDY    60  45  57 SE5       29.83F
IMPERIAL       CLEAR     56  44  64 S13       29.82F
LEXINGTON      PTCLDY    56  46  69 S8        29.87F
MCCOOK         PTCLDY    59  46  62 S8        29.85F
OGALLALA       CLEAR     56  44  64 CALM      29.81F
$$

NEZ005>010-023>029-035>040-094-200900-
NORTH CENTRAL NEBRASKA

CITY           SKY/WX    TMP DP  RH WIND       PRES   REMARKS
VALENTINE      CLEAR     59  43  55 S9        29.76F
AINSWORTH      PTCLDY    59  44  59 S15       29.78F
BROKEN BOW     PTCLDY    57  45  64 S10       29.85F
O`NEILL        CLEAR     59  47  64 S13       29.83F
ORD            CLEAR     57  46  66 S12       29.86F
THEDFORD       CLEAR     60  44  55 S9        29.81F
$$

NEZ041-046>049-061>064-073>077-083>087-200900-
SOUTH CENTRAL NEBRASKA

CITY           SKY/WX    TMP DP  RH WIND       PRES   REMARKS
GRAND ISLAND   FAIR      58  48  69 S14       29.91F
AURORA         FAIR      57  46  68 S9        29.93F
HASTINGS       FAIR      58  47  66 S9        29.93F
HEBRON         FAIR      58  50  76 S10       29.96F
HOLDREGE       FAIR      56  48  74 S7        29.90F
KEARNEY        FAIR      57  47  69 S13       29.90F
YORK           FAIR      57  48  72 S13       29.94F
$$

NEZ011>018-030>034-042>045-200900-
NORTHEAST NEBRASKA

CITY           SKY/WX    TMP DP  RH WIND       PRES   REMARKS
NORFOLK        FAIR      60  47  61 S17       29.89S
ALBION         FAIR      58  48  69 S8        29.90F
BLAIR          FAIR      60  50  70 S12       29.97S
COLUMBUS       FAIR      60  48  64 S16       29.93F
FREMONT        FAIR      62  48  60 S10       29.96S
TEKAMAH        FAIR      58  48  69 S9        29.95S
WAYNE          FAIR      58  46  65 S8        29.90S
$$

NEZ050>053-065>068-078-088>093-200900-
SOUTHEAST NEBRASKA

CITY           SKY/WX    TMP DP  RH WIND       PRES   REMARKS
LINCOLN        FAIR      59  49  69 S13       29.97F
OMAHA EPPLEY   MOCLDY    57  50  77 S9        29.98F
BEATRICE       FAIR      59  51  74 S10       29.99F
FALLS CITY     FAIR      59  53  80 S8        30.03S
NEBRASKA CITY  FAIR      59  53  80 S13       30.01S
PLATTSMOUTH    FAIR      58  52  80 S10       29.99F
$$

NEZ044-045-051>053-067-200900-
OMAHA AREA

CITY           SKY/WX    TMP DP  RH WIND       PRES   REMARKS
OMAHA EPPLEY   MOCLDY    57  50  77 S9        29.98F
BLAIR          FAIR      60  50  70 S12       29.97S
FREMONT        FAIR      62  48  60 S10       29.96S
MILLARD        FAIR      59  51  75 SE5       29.98S
OFFUTT AFB     FAIR      55  50  85 SE9       29.98F
PLATTSMOUTH    FAIR      58  52  80 S10       29.99F
WAHOO          FAIR      60  49  65 S10       29.96S
$$




USA.gov is the U.S. government's official web portal to all federal, state and local government web resources and services.